Tracking 29969 objects as of 6-Dec-2024
HD Live streaming from Space Station
objects crossing your sky now

IRIDIUM 33 DEB

Track IRIDIUM 33 DEB now!
10-day predictions


NORAD ID: 34690
Int'l Code: 1997-051KM
Perigee: 719.4 km
Apogee: 734.1 km
Inclination: 86.4 °
Period: 99.2 minutes
Semi major axis: 7097 km
RCS: 0.0122 m2 (small)
Launch date: September 14, 1997
Source: United States (US)
Launch site: TYURATAM MISSILE AND SPACE COMPLEX (TTMTR)

Note: This is SATELLITE DEBRIS
Your satellite tracking list
Your tracking list is empty




NASA's NSSDC Master Catalog

Two Line Element Set (TLE):
1 34690U 97051KM  24341.39168148  .00005314  00000-0  13146-2 0  9998
2 34690  86.3829 197.9404 0010338 173.5694   0.0458 14.51840799827219
Source of the keplerian elements: AFSPC